"Pseudo-MPEC" for PDO0067

Created 2025 Jul 7 22:35:13 UT using Find_Orb

Click here for an explanation of pseudo-MPECs

 
 Astrometry: 
     PDO0067*2C2025 07 03.11285511 56 39.547-11 14 36.77   ~73GZ 20.5 GVNEOCPW57
     PDO0067 2C2025 07 03.12061311 56 37.425-11 15 50.52   ~73GZ 20.7 GVNEOCPW57
     PDO0067 2C2025 07 03.12661111 56 35.804-11 16 44.89   ~73GZ 20.4 GVNEOCPW57

Station data:
(W57) ESA TBT La Silla Observatory  (S29.255226 W70.739060)  Chile.
   Observers F. Ocaña, R. Kresken, L. Conversi, M. Micheli. Measurers F.
   Ocaña, M. Micheli. 0.56-m f/2.52 astrograph prime-focus corrector + 4K CCD.

Orbital elements:  PDO0067
   Perihelion 2025 Oct 5.78419 +/- 40.9 TT = 18:49:14 (JD 2460954.28419)
Epoch 2025 Jul  3.0 TT = JDT 2460859.5   Earth MOID: 0.0018      AutoNEOCP
M 205.79813856 +/- 70               (J2000 ecliptic)
n   1.62687315 +/- 0.989            Peri.  350.71150 +/- 70
a   0.71597894 +/- 0.29             Node    90.79733 +/- 6
e   0.4310236 +/- 0.261             Incl.   46.14142 +/- 45
P   0.606/221.279d         H 21.70  G  0.15   U 12.7  SR
q 0.40737507 +/- 0.353    Q 1.02458282 +/- 16.5
From 3 observations 2025 July 3 (19.8 min); mean residual 0".49
Residuals in arcseconds: 
250703 W57  .03+  .42+    250703 W57  .07-  .97-    250703 W57  .04+  .55+    

Ephemerides (geocentric):
Date (UTC) HH   RA             Dec           delta  r     elong  mag " sig PA
---- --------  ------------   ------------  ------ ------ -----  --- --------
2025 07 07 23  11 39 15.322   -20 55 13.90  .20483 0.9982  79.1 21.4 383' 154
2025 07 08 00  11 39 08.000   -20 58 59.90  .20526 0.9981  79.0 21.4 392' 153
2025 07 08 01  11 39 00.700   -21 02 44.92  .20569 0.9980  79.0 21.4 401' 153
2025 07 08 02  11 38 53.423   -21 06 28.97  .20612 0.9979  79.0 21.4 411' 152
2025 07 08 03  11 38 46.169   -21 10 12.06  .20655 0.9978  78.9 21.4 421' 152
2025 07 08 04  11 38 38.936   -21 13 54.18  .20698 0.9977  78.9 21.4 431' 151
2025 07 08 05  11 38 31.726   -21 17 35.35  .20741 0.9975  78.9 21.4 442' 150
2025 07 08 06  11 38 24.537   -21 21 15.57  .20784 0.9974  78.8 21.4 453' 150
2025 07 08 07  11 38 17.371   -21 24 54.84  .20827 0.9973  78.8 21.4 465' 149
2025 07 08 08  11 38 10.226   -21 28 33.17  .20870 0.9972  78.8 21.4 477' 148
2025 07 08 09  11 38 03.102   -21 32 10.57  .20913 0.9971  78.7 21.5 490' 147
2025 07 08 10  11 37 56.001   -21 35 47.04  .20957 0.9970  78.7 21.5 503' 146
2025 07 08 11  11 37 48.920   -21 39 22.59  .21000 0.9969  78.7 21.5 517' 145
2025 07 08 12  11 37 41.861   -21 42 57.22  .21043 0.9968  78.7 21.5 532' 144
2025 07 08 13  11 37 34.823   -21 46 30.94  .21086 0.9967  78.6 21.5 548' 142
2025 07 08 14  11 37 27.806   -21 50 03.75  .21129 0.9966  78.6 21.5 564' 141
2025 07 08 15  11 37 20.809   -21 53 35.66  .21172 0.9965  78.6 21.5 582' 140
2025 07 08 16  11 37 13.834   -21 57 06.67  .21216 0.9964  78.5 21.5 600' 138
2025 07 08 17  11 37 06.879   -22 00 36.78  .21259 0.9962  78.5 21.5 619' 137
2025 07 08 18  11 36 59.945   -22 04 06.01  .21302 0.9961  78.5 21.5 638' 135
2025 07 08 19  11 36 53.031   -22 07 34.36  .21345 0.9960  78.4 21.5 659' 134
2025 07 08 20  11 36 46.138   -22 11 01.83  .21389 0.9959  78.4 21.5 679' 132
2025 07 08 21  11 36 39.264   -22 14 28.43  .21432 0.9958  78.4 21.5 700' 131
2025 07 08 22  11 36 32.411   -22 17 54.16  .21475 0.9957  78.3 21.5 720' 129
2025 07 08 23  11 36 25.578   -22 21 19.03  .21519 0.9956  78.3 21.5 741' 128
2025 07 09 00  11 36 18.765   -22 24 43.04  .21562 0.9955  78.3 21.5 760' 127
2025 07 09 01  11 36 11.971   -22 28 06.19  .21605 0.9954  78.3 21.5 780' 125
2025 07 09 02  11 36 05.197   -22 31 28.50  .21649 0.9952  78.2 21.5 798' 124
2025 07 09 03  11 35 58.443   -22 34 49.97  .21692 0.9951  78.2 21.5 816' 123
2025 07 09 04  11 35 51.708   -22 38 10.59  .21736 0.9950  78.2 21.5 833' 122
2025 07 09 05  11 35 44.993   -22 41 30.39  .21779 0.9949  78.1 21.5 849' 121
2025 07 09 06  11 35 38.297   -22 44 49.35  .21822 0.9948  78.1 21.5 865' 121
2025 07 09 07  11 35 31.620   -22 48 07.49  .21866 0.9947  78.1 21.5 880' 120
2025 07 09 08  11 35 24.962   -22 51 24.81  .21909 0.9946  78.0 21.6 894' 119
2025 07 09 09  11 35 18.323   -22 54 41.31  .21953 0.9945  78.0 21.6 908' 118
2025 07 09 10  11 35 11.703   -22 57 57.00  .21996 0.9943  78.0 21.6 922' 118
2025 07 09 11  11 35 05.101   -23 01 11.88  .22040 0.9942  78.0 21.6 935' 117
2025 07 09 12  11 34 58.518   -23 04 25.97  .22083 0.9941  77.9 21.6 948' 116
2025 07 09 13  11 34 51.954   -23 07 39.25  .22127 0.9940  77.9 21.6 960' 116
2025 07 09 14  11 34 45.408   -23 10 51.74  .22170 0.9939  77.9 21.6 973' 115
2025 07 09 15  11 34 38.881   -23 14 03.44  .22214 0.9938  77.8 21.6 984' 115
2025 07 09 16  11 34 32.371   -23 17 14.36  .22258 0.9937  77.8 21.6 996' 114
2025 07 09 17  11 34 25.880   -23 20 24.50  .22301 0.9935  77.8 21.6  17d 114
2025 07 09 18  11 34 19.407   -23 23 33.86  .22345 0.9934  77.7 21.6  17d 113
2025 07 09 19  11 34 12.952   -23 26 42.45  .22388 0.9933  77.7 21.6  17d 113
2025 07 09 20  11 34 06.515   -23 29 50.27  .22432 0.9932  77.7 21.6  17d 112
2025 07 09 21  11 34 00.095   -23 32 57.32  .22476 0.9931  77.7 21.6  17d 112
2025 07 09 22  11 33 53.694   -23 36 03.62  .22519 0.9930  77.6 21.6  18d 111